This demonstration page uses our WeatherBlox Daily Observations layout. Learn more.

Left ArrowRight Arrow

34.74481, -87.66753

Hourly Observations for March 24, 2018

Temp ( °F °C ) Dew Point ( °F °C ) Humidity (%) Winds ( mph kmh ) Pressure ( in mb ) Visibility ( mi km ) Precip ( " mm )
12:53 am 00:53 Clear 50 10 42 5.6 74 74 E 7 11 30.06 1018 10 16 0.00 0.00
1:53 am 01:53 Clear 50 10 41 5 71 71 E 6 9 30.06 1018 10 16 0.00 0.00
2:53 am 02:53 Cloudy 55 12.8 43 6.1 64 64 SSE 7 11 30.03 1017 10 16 0.00 0.00
3:53 am 03:53 Cloudy 60 15.6 45 7.2 58 58 SSW 13 20 30.01 1016 10 16 0.00 0.00
4:53 am 04:53 Cloudy 60 15.6 47 8.3 62 62 SSW 14 22 30.01 1016 10 16 0.00 0.00
5:53 am 05:53 Cloudy 60 15.6 48 8.9 65 65 SSW 13 20 30.02 1017 10 16 0.00 0.00
6:53 am 06:53 Cloudy 58 14.4 48 8.9 70 70 S 10 17 30.00 1016 10 16 0.00 0.00
7:53 am 07:53 Cloudy 58 14.4 49 9.4 72 72 S 7 11 30.01 1016 10 16 0.00 0.00
8:53 am 08:53 Cloudy 61 16.1 51 10.6 70 70 S 9 15 29.99 1016 10 16 0.00 0.00
9:32 am 09:32 Cloudy 61 16.1 52 11.1 72 72 S 9 15 29.94 1014 10 16 0.00 0.00
9:53 am 09:53 Cloudy 63 17.2 53 11.7 70 70 SW 21 33 29.97 1015 10 16 0.00 0.00
10:53 am 10:53 Cloudy 64 17.8 54 12.2 70 70 SW 10 17 29.95 1014 10 16 0.00 0.00
11:53 am 11:53 Cloudy 65 18.3 55 12.8 70 70 SW 13 20 29.93 1014 10 16 0.00 0.00
12:27 pm 12:27 Cloudy 68 20 55 12.8 63 63 SW 14 22 29.88 1012 10 16 0.00 0.00
12:53 pm 12:53 Cloudy 68 20 55 12.8 63 63 SW 23 37 29.90 1013 10 16 0.00 0.00
1:53 pm 13:53 Cloudy 67 19.4 55 12.8 66 66 WSW 13 20 29.88 1012 10 16 0.00 0.03
2:53 pm 14:53 Cloudy 67 19.4 56 13.3 68 68 SW 12 19 29.86 1011 10 16 0.00 0.00
3:20 pm 15:20 Cloudy 68 20 56 13.3 65 65 WSW 15 24 29.85 1011 10 16 0.00 0.00
3:53 pm 15:53 Cloudy 67 19.4 57 13.9 71 71 SW 16 26 29.85 1011 10 16 0.00 0.00
4:11 pm 16:11 Cloudy 66 18.9 57 13.9 73 73 SW 13 20 29.83 1010 10 16 0.00 0.00
4:48 pm 16:48 Cloudy 66 19 57 14 73 73 WSW 15 24 29.83 1010 10 16 0.00 0.00
4:53 pm 16:53 Cloudy 66 18.9 58 14.4 75 75 SW 10 17 29.84 1011 10 16 0.00 0.00
5:14 pm 17:14 Cloudy 66 18.9 58 14.4 75 75 WSW 15 24 29.83 1010 10 16 0.00 0.00
5:27 pm 17:27 Cloudy 66 18.9 58 14.4 75 75 WSW 13 20 29.83 1010 10 16 0.00 0.00
5:39 pm 17:39 Cloudy 66 18.9 58 14.4 75 75 SW 12 19 29.83 1010 10 16 0.00 0.00
5:53 pm 17:53 Cloudy 66 18.9 58 14.4 75 75 SW 10 17 29.84 1011 10 16 0.00 0.00
6:53 pm 18:53 Cloudy with Light Rain 64 17.8 59 15 84 84 SW 12 19 29.85 1011 4 6 0.01 0.25
7:33 pm 19:33 Cloudy 63 17.2 60 15.6 90 90 SW 10 17 29.83 1010 10 16 0.00 0.03
7:42 pm 19:42 Cloudy 64 17.8 60 15.6 87 87 SSW 9 15 29.83 1010 10 16 0.00 0.03
7:53 pm 19:53 Cloudy 64 17.8 60 15.6 87 87 SW 9 15 29.85 1011 10 16 0.00 0.03
8:53 pm 20:53 Cloudy 65 18.3 59 15 81 81 WSW 9 15 29.85 1011 10 16 0.00 0.00
9:53 pm 21:53 Cloudy 65 18.3 59 15 81 81 WSW 6 9 29.86 1011 10 16 0.00 0.00
10:19 pm 22:19 Mostly Cloudy 64 17.8 59 15 84 84 SW 7 11 29.85 1011 10 16 0.00 0.00
10:37 pm 22:37 Mostly Cloudy 64 17.8 59 15 84 84 WSW 9 15 29.85 1011 10 16 0.00 0.00
10:53 pm 22:53 Mostly Clear 64 17.8 59 15 84 84 WSW 9 15 29.85 1011 10 16 0.00 0.00
11:53 pm 23:53 Partly Cloudy 65 18.3 59 15 81 81 W 12 19 29.86 1011 10 16 0.00 0.00

Powered by AerisWeather